Погода в Эгильсстадире

Исландия     65°16′27″N   14°24′13″W
темп.,
°C
ветер,
м/с
пор.,
м/с
влажн.,
%
обл.,
%
осадки,
мм/ч
давл.,
гПа
погр.,
м
27 ноября, сб
сб2700:00−13юз4579100 0.0 102473
03:00−10юз3469100 0.0 102189
06:00−8ююз3462100 0.0 101865
09:00−7юз3461100 0.0 101657
12:00−6юз346380 0.0 101362
15:00−5ююз4569100 0.0 101172
18:00−5зюз337385 0.0 101142
21:00−5з51182100 0.0 1013481
28 ноября, вс
вс2800:00−7з348856 0.1 1014166
03:00−6з229295 0.4 101559
06:00−7з1193100 0.8 101559
09:00−6ююв1193100 0.1 101569
12:00−5ююв2393100 0.4 1013147
15:00−5ююв3495100 0.9 1010192
18:00−3ююв3696100 1.4 1007217
21:00−3ююв4695100 1.2 1003218
29 ноября, пн
пн2900:00−2ююз2497100 3.4 1001145
03:00−4з119783 0.4 100217
06:00−7зсз119682 0.5 100616
09:00−6зсз229697 0.2 100940
12:00−4ссв689778 1.3 1011263
15:00−5ссв5797100 0.1 1013209
18:00−6всв3394100 0.1 101273
21:00−6в2396100 1.1 1011141
30 ноября, вт
вт3000:00−6юв2395100 3.1 1007135
03:00−5юв3495100 1.1 1004187
06:00−4ю3696100 2.6 1001244
09:00−4ююв4593100 0.3 99883
12:00−3ю4696100 0.3 99698
15:00−2ююв3496100 0.0 99598
18:00−2вюв1198100 0.4 99634
21:00−2св2298100 2.6 99886
1 декабря, ср
ср100:00−2ссв3498100 5.6 1001219
03:00−3ссв6897100 1.7 1005275
06:00−6ссз359782 2.2 100983
09:00−10зюз329593 0.0 101322
12:00−11зюз339464 0.1 101620
15:00−12зюз339467 0.0 101922
18:00−14зюз229626 0.1 102115
21:00−15юз339986 0.0 102218